This demonstration page uses our WeatherBlox Daily Observations layout. Learn more.

Left ArrowRight Arrow

39.12711, -84.51439

Hourly Observations for March 29, 2021

Temp ( °F °C ) Dew Point ( °F °C ) Humidity (%) Winds ( mph kmh ) Pressure ( in mb ) Visibility ( mi km ) Precip ( " mm )
12:53 am 00:53 Clear 38 3.3 24 -4.4 57 57 VRB 5 7 30.21 1023 10 16.0934 0 0
1:53 am 01:53 Clear 39 3.9 24 -4.4 55 55 W 5 7 30.22 1023 10 16.0934 0 0
2:53 am 02:53 Clear 36 2.2 25 -3.9 64 64 SW 3 6 30.23 1024 10 16.0934 0 0
3:53 am 03:53 Clear 35 1.7 26 -3.3 70 70 S 6 9 30.24 1024 10 16.0934 0 0
4:53 am 04:53 Clear 34 1.1 26 -3.3 73 73 SW 5 7 30.24 1024 10 16.0934 0 0
5:53 am 05:53 Clear 31 -0.6 26 -3.3 82 82 Calm 30.25 1025 10 16.0934 0 0
6:53 am 06:53 Clear 30 -1.1 27 -2.8 88 88 Calm 30.27 1025 10 16.0934 0 0
7:53 am 07:53 Sunny 30 -1.1 27 -2.8 88 88 NE 3 6 30.29 1026 10 16.0934 0 0
8:53 am 08:53 Sunny 36 2.2 30 -1.1 79 79 Calm 30.31 1026 10 16.0934 0 0
9:53 am 09:53 Sunny 41 5 32 0 70 70 Calm 30.32 1027 10 16.0934 0 0
10:53 am 10:53 Sunny 46 7.8 28 -2.2 50 50 Calm 30.32 1027 10 16.0934 0 0
11:53 am 11:53 Sunny 49 9.4 26 -3.3 41 41 Calm 30.3 1026 10 16.0934 0 0
12:53 pm 12:53 Sunny 52 11.1 28 -2.2 40 40 VRB 5 7 30.28 1025 10 16.0934 0 0
1:53 pm 13:53 Sunny 53 11.7 27 -2.8 37 37 VRB 3 6 30.26 1025 10 16.0934 0 0
2:53 pm 14:53 Sunny 55 12.8 27 -2.8 34 34 Calm 30.23 1024 10 16.0934 0 0
3:53 pm 15:53 Sunny 56 13.3 25 -3.9 30 30 Calm 30.2 1023 10 16.0934 0 0
4:53 pm 16:53 Sunny 59 15 29 -1.7 32 32 ESE 14 22 30.18 1022 10 16.0934 0 0
5:53 pm 17:53 Sunny 59 15 30 -1.1 33 33 SSE 9 15 30.17 1022 10 16.0934 0 0
6:53 pm 18:53 Sunny 57 13.9 27 -2.8 32 32 SE 9 15 30.16 1021 10 16.0934 0 0
7:53 pm 19:53 Sunny 54 12.2 28 -2.2 37 37 S 9 15 30.15 1021 10 16.0934 0 0
8:53 pm 20:53 Clear 50 10 28 -2.2 43 43 S 6 9 30.16 1021 10 16.0934 0 0
9:53 pm 21:53 Clear 50 10 28 -2.2 43 43 Calm 30.15 1021 10 16.0934 0 0
10:53 pm 22:53 Clear 43 6.1 34 1.1 71 71 Calm 30.14 1021 10 16.0934 0 0
11:53 pm 23:53 Clear 41 5 34 1.1 76 76 Calm 30.13 1020 10 16.0934 0 0

Powered by AerisWeather